Weather History for Kuching, Malaysia

Change the Weather History Date:

Monday, October 7, 2013

  Actual Average Record
Temperature  
Mean Temperature 80 °F -  
Max Temperature 90 °F 89 °F - ()
Min Temperature 71 °F 73 °F - ()
Cooling Degree Days 16    
Growing Degree Days 30 (Base 50)    
Moisture  
Dew Point 74 °F    
Average Humidity 87    
Maximum Humidity 95    
Minimum Humidity 59    
Precipitation  
Precipitation 1.50 in 0.46 in - ()
Sea Level Pressure  
Sea Level Pressure 29.82 in    
Wind  
Wind Speed 3 mph ()    
Max Wind Speed 21 mph    
Max Gust Speed 34 mph    
Visibility 5.0 miles    
Events Rain , Thunderstorm    
T = Trace of Precipitation, MM = Missing Value Source: Averaged Metar Reports

Daily Weather History Graph

Daily Weather History Graph

Search for Another Location

Airport:

Trip Planner

Search our weather history database for the weather conditions in past years. The results will help you decide how hot, cold, wet, or windy it might be!

Date:

Astronomy

Oct. 07, 2013 Rise Set
Actual Time 6:23 AM MYT 6:29 PM MYT
Civil Twilight 6:03 AM MYT 6:49 PM MYT
Nautical Twilight 5:38 AM MYT 7:14 PM MYT
Astronomical Twilight 5:14 AM MYT 7:38 PM MYT
Moon 8:03 AM MYT (10/7) 8:26 PM MYT (10/7)
Length of Visible Light 12h 46m
Length of Day
12h 05m
Waxing Crescent, 6% of the Moon is Illuminated
Oct 7
Waxing Crescent
Oct 12
First Quarter
Oct 19
Full
Oct 27
Last Quarter
Nov 3
New

Hourly Weather History & Observations

Time (MYT) Temp. Heat Index Dew Point Humidity Pressure Visibility Wind Dir Wind Speed Gust Speed Precip Events Conditions
12:00 AM 75.2 °F - 73.4 °F 94% 29.83 in 6.2 mi NW 2.3 mph - N/A   Mostly Cloudy
12:30 AM 77.0 °F - 73.4 °F 89% 29.83 in 6.2 mi South 2.3 mph - N/A   Mostly Cloudy
1:00 AM 77.0 °F - 73.4 °F 89% 29.80 in 6.2 mi WSW 2.3 mph - N/A   Mostly Cloudy
1:30 AM 75.2 °F - 73.4 °F 94% 29.80 in 6.2 mi South 3.5 mph - N/A   Mostly Cloudy
2:00 AM 75 °F - 73 °F 92% 29.80 in 9 mi Calm Calm - -   Partly Cloudy
2:00 AM 75.2 °F - 73.4 °F 94% 29.80 in 6.2 mi Calm Calm - N/A   Mostly Cloudy
2:30 AM 75.2 °F - 73.4 °F 94% 29.80 in 6.2 mi Calm Calm - N/A   Mostly Cloudy
3:00 AM 75.2 °F - 73.4 °F 94% 29.80 in 6.2 mi ENE 1.2 mph - N/A   Mostly Cloudy
3:30 AM 75.2 °F - 73.4 °F 94% 29.80 in 6.2 mi Calm Calm - N/A   Mostly Cloudy
4:00 AM 75.2 °F - 73.4 °F 94% 29.80 in 3.7 mi East 2.3 mph - N/A   Mostly Cloudy
4:30 AM 75.2 °F - 73.4 °F 94% 29.80 in 4.3 mi NE 1.2 mph - N/A   Mostly Cloudy
5:00 AM 76 °F - 74 °F 91% 29.82 in 9 mi North 1.2 mph - -   Partly Cloudy
5:00 AM 75.2 °F - 73.4 °F 94% 29.80 in 6.2 mi North 1.2 mph - N/A   Mostly Cloudy
5:30 AM 75.2 °F - 73.4 °F 94% 29.80 in 3.7 mi SSE 2.3 mph - N/A   Mostly Cloudy
6:00 AM 77.0 °F - 73.4 °F 89% 29.83 in 3.7 mi WNW 1.2 mph - N/A   Mostly Cloudy
6:30 AM 75.2 °F - 73.4 °F 94% 29.83 in 3.7 mi NW 1.2 mph - N/A   Mostly Cloudy
7:00 AM 77.0 °F - 73.4 °F 89% 29.83 in 3.7 mi SW 3.5 mph - N/A   Mostly Cloudy
7:30 AM 77.0 °F - 73.4 °F 89% 29.86 in 3.7 mi SW 2.3 mph - N/A   Mostly Cloudy
8:00 AM 78 °F - 74 °F 84% 29.87 in 4 mi Calm Calm - -   Haze
8:00 AM 78.8 °F - 73.4 °F 83% 29.86 in 3.7 mi Calm Calm - N/A   Mostly Cloudy
8:30 AM 78.8 °F - 75.2 °F 89% 29.86 in 3.7 mi SW 3.5 mph - N/A   Mostly Cloudy
9:00 AM 80.6 °F 86.2 °F 75.2 °F 84% 29.86 in 3.7 mi SW 1.2 mph - N/A   Mostly Cloudy
9:30 AM 82.4 °F 89.5 °F 75.2 °F 79% 29.86 in 3.7 mi SW 3.5 mph - N/A   Mostly Cloudy
10:00 AM 84.2 °F 92.3 °F 75.2 °F 74% 29.86 in 2.5 mi South 3.5 mph - N/A   Haze
10:30 AM 86.0 °F 96.9 °F 77.0 °F 74% 29.86 in 2.5 mi SSW 3.5 mph - N/A   Haze
11:00 AM 86.0 °F 95.1 °F 75.2 °F 70% 29.86 in 2.5 mi South 3.5 mph - N/A   Haze
11:30 AM 87.8 °F 99.7 °F 77.0 °F 70% 29.86 in 2.5 mi South 4.6 mph - N/A   Haze
12:00 PM 87.8 °F 99.7 °F 77.0 °F 70% 29.83 in 2.5 mi SSE 5.8 mph - N/A   Haze
12:30 PM 89.6 °F 102.2 °F 77.0 °F 66% 29.83 in 2.5 mi SE 3.5 mph - N/A   Haze
1:00 PM 89.6 °F 102.2 °F 77.0 °F 66% 29.80 in 3.1 mi SSE 4.6 mph - N/A   Haze
1:30 PM 89.6 °F 102.2 °F 77.0 °F 66% 29.77 in 3.7 mi SSE 5.8 mph - N/A   Mostly Cloudy
2:00 PM 90 °F - 77 °F 59% 29.77 in 4 mi ESE 4.6 mph - -   Partly Cloudy
2:00 PM 89.6 °F 102.2 °F 77.0 °F 66% 29.77 in 3.7 mi ESE 4.6 mph - N/A   Mostly Cloudy
2:30 PM 80.6 °F 86.2 °F 75.2 °F 84% 29.74 in 3.7 mi North 15.0 mph - N/A Thunderstorm Thunderstorm
3:00 PM 71.6 °F - 69.8 °F 94% 29.77 in 0.1 mi WSW 20.7 mph 34.5 mph N/A Rain , Thunderstorm Heavy Thunderstorms and Rain
3:30 PM 73.4 °F - 71.6 °F 94% 29.77 in 1.2 mi NE 4.6 mph - N/A Rain , Thunderstorm Heavy Thunderstorms and Rain
4:00 PM 73.4 °F - 71.6 °F 94% 29.80 in 3.7 mi SE 12.7 mph - N/A Rain , Thunderstorm Light Thunderstorms and Rain
4:30 PM 73.4 °F - 71.6 °F 94% 29.74 in 6.2 mi ENE 3.5 mph - N/A Rain Light Rain
5:00 PM 75 °F - 73 °F 90% 29.77 in 9 mi South 2.3 mph - - Rain Light Rain
5:00 PM 75.2 °F - 73.4 °F 94% 29.77 in 6.2 mi South 2.3 mph - N/A Rain Light Rain
5:30 PM 75.2 °F - 73.4 °F 94% 29.77 in 6.2 mi WSW 5.8 mph - N/A   Mostly Cloudy
6:00 PM 75.2 °F - 73.4 °F 94% 29.80 in 6.2 mi WNW 5.8 mph - N/A Rain Light Rain
6:30 PM 75.2 °F - 73.4 °F 94% 29.83 in 6.2 mi SW 4.6 mph - N/A Rain Light Rain
7:00 PM 75.2 °F - 73.4 °F 94% 29.83 in 6.2 mi WSW 2.3 mph - N/A   Mostly Cloudy
7:30 PM 75.2 °F - 73.4 °F 94% 29.83 in 6.2 mi ESE 4.6 mph - N/A   Mostly Cloudy
8:00 PM 74 °F - 73 °F 95% 29.86 in 9 mi SE 3.5 mph - -   Partly Cloudy
8:00 PM 75.2 °F - 73.4 °F 94% 29.86 in 6.2 mi SE 3.5 mph - N/A   Mostly Cloudy
8:30 PM 75.2 °F - 73.4 °F 94% 29.86 in 6.2 mi South 2.3 mph - N/A   Mostly Cloudy
9:00 PM 75.2 °F - 73.4 °F 94% 29.86 in 6.2 mi South 3.5 mph - N/A   Mostly Cloudy
9:30 PM 75.2 °F - 73.4 °F 94% 29.86 in 6.2 mi SE 4.6 mph - N/A   Mostly Cloudy
10:00 PM 75.2 °F - 71.6 °F 89% 29.89 in 6.2 mi SE 6.9 mph - N/A   Mostly Cloudy
10:30 PM 75.2 °F - 71.6 °F 89% 29.89 in 6.2 mi South 3.5 mph - N/A   Mostly Cloudy
11:00 PM 74 °F - 72 °F 91% 29.89 in 9 mi SE 1.2 mph - -   Partly Cloudy
11:00 PM 73.4 °F - 71.6 °F 94% 29.89 in 6.2 mi SE 1.2 mph - N/A   Mostly Cloudy
11:30 PM 75.2 °F - 71.6 °F 89% 29.86 in 6.2 mi NNW 2.3 mph - N/A   Mostly Cloudy